Arden, NC

3:37 PM EST on December 07, 2016 (GMT -0500)
Asheville Regional

Weather History for KAVL - November, 2011

Change the Weather History Date:

Tuesday, November 15, 2011

  Actual Average Record
Temperature  
Mean Temperature 64 °F 48 °F  
Max Temperature 69 °F 59 °F 77 °F (1897)
Min Temperature 59 °F 36 °F 13 °F (1969)
Degree Days  
Heating Degree Days 1 18  
Month to date heating degree days 246 232  
Since 1 July heating degree days 607 567  
Cooling Degree Days 0 0  
Month to date cooling degree days 0 0  
Year to date cooling degree days 1201 862  
Growing Degree Days 13 (Base 50)    
Moisture  
Dew Point 57 °F    
Average Humidity 79    
Maximum Humidity 90    
Minimum Humidity 67    
Precipitation  
Precipitation 0.03 in 0.11 in 2.08 in (1989)
Month to date precipitation 1.14 1.63  
Year to date precipitation 36.75 39.96  
Snow  
Snow 0.00 in 0.00 in T in (2007)
Month to date snowfall 0.0 0.0  
Since 1 July snowfall 0.0 0.0  
Since 1 September snowfall 0.0 0.0  
Snow Depth 0.00 in    
Sea Level Pressure  
Sea Level Pressure 29.96 in    
Wind  
Wind Speed 9 mph (South)    
Max Wind Speed 20 mph    
Max Gust Speed 24 mph    
Visibility 9 miles    
Events Rain    
T = Trace of Precipitation, MM = Missing Value Source: NWS Daily Summary

Daily Weather History Graph

Daily Weather History Graph

Search for Another Location

Airport or City:

Trip Planner

Search our weather history database for the weather conditions in past years. The results will help you decide how hot, cold, wet, or windy it might be!

Date:

Astronomy

Nov. 15, 2011 Rise Set
Actual Time 7:05 AM EST 5:23 PM EST
Civil Twilight 6:38 AM EST 5:50 PM EST
Nautical Twilight 6:07 AM EST 6:21 PM EST
Astronomical Twilight 5:37 AM EST 6:51 PM EST
Moon 9:32 PM EST (11/15) 11:02 AM EST (11/15)
Length of Visible Light 11h 12m
Length of Day
10h 18m
Waning Gibbous, 79% of the Moon is Illuminated
Nov 15
Waning Gibbous
Nov 18
Last Quarter
Nov 25
New
Dec 2
First Quarter
Dec 10
Full

Hourly Weather History & Observations

Time (EST) Temp. Dew Point Humidity Pressure Visibility Wind Dir Wind Speed Gust Speed Precip Events Conditions
12:20 AM 62.6 °F 53.6 °F 72% 30.04 in 10.0 mi South 10.4 mph - N/A   Overcast
12:54 AM 62.1 °F 54.0 °F 75% 29.98 in 10.0 mi SSE 9.2 mph - N/A   Overcast
1:20 AM 62.6 °F 55.4 °F 77% 30.02 in 10.0 mi SSE 8.1 mph - 0.00 in   Overcast
1:54 AM 63.0 °F 54.0 °F 72% 29.96 in 10.0 mi SE 5.8 mph - 0.00 in   Overcast
2:54 AM 64.0 °F 53.1 °F 67% 29.95 in 10.0 mi SSE 6.9 mph - N/A   Overcast
3:54 AM 62.1 °F 53.1 °F 72% 29.94 in 10.0 mi South 6.9 mph - N/A   Scattered Clouds
4:54 AM 61.0 °F 53.1 °F 75% 29.95 in 10.0 mi South 4.6 mph - N/A   Partly Cloudy
5:54 AM 60.1 °F 54.0 °F 80% 29.96 in 10.0 mi South 6.9 mph - N/A   Clear
6:54 AM 60.1 °F 55.0 °F 83% 29.95 in 10.0 mi South 15.0 mph - N/A   Partly Cloudy
7:54 AM 60.8 °F 55.4 °F 82% 30.00 in 10.0 mi South 9.2 mph 17.3 mph N/A   Partly Cloudy
9:54 AM 62.6 °F 57.2 °F 82% 30.02 in 10.0 mi South 10.4 mph - N/A   Clear
10:54 AM 66.0 °F 57.0 °F 73% 29.97 in 10.0 mi South 13.8 mph - N/A   Overcast
11:54 AM 66.9 °F 57.0 °F 70% 29.94 in 10.0 mi SSW 12.7 mph - N/A   Overcast
1:54 PM 64.9 °F 57.9 °F 78% 29.92 in 10.0 mi SSW 10.4 mph 20.7 mph N/A   Overcast
2:54 PM 64.9 °F 57.9 °F 78% 29.92 in 10.0 mi SSW 11.5 mph - N/A   Overcast
3:54 PM 63.0 °F 59.0 °F 87% 29.92 in 10.0 mi SSE 3.5 mph - 0.00 in   Overcast
4:54 PM 64.0 °F 57.9 °F 80% 29.93 in 10.0 mi South 6.9 mph - N/A   Overcast
5:54 PM 64.9 °F 57.0 °F 75% 29.93 in 10.0 mi South 6.9 mph 16.1 mph N/A   Overcast
6:54 PM 64.0 °F 55.9 °F 75% 29.95 in 10.0 mi South 13.8 mph - N/A   Overcast
7:54 PM 63.0 °F 55.9 °F 78% 29.95 in 10.0 mi South 17.3 mph - N/A   Mostly Cloudy
8:54 PM 63.0 °F 57.9 °F 84% 29.95 in 10.0 mi South 6.9 mph - N/A   Overcast
9:54 PM 63.0 °F 59.0 °F 87% 29.95 in 10.0 mi South 10.4 mph - N/A   Overcast
10:54 PM 61.0 °F 60.1 °F 97% 29.94 in 5.0 mi SSE 5.8 mph - 0.00 in Rain Light Rain
11:26 PM 60.8 °F 60.8 °F 100% 29.98 in 3.0 mi Calm Calm - 0.02 in Rain Light Rain
11:39 PM 60.8 °F 60.8 °F 100% 29.98 in 4.0 mi Calm Calm - 0.02 in Rain Light Rain
11:54 PM 61.0 °F 61.0 °F 100% 29.92 in 6.0 mi Calm Calm - 0.03 in Rain Light Rain